Walla Walla, WA
on Tuesday, November 20, 2012

Tuesday
Previous Day Next Day
Daily Summary
 ActualAverage (KPDT)Record (KPDT)
Temperature
Mean Temperature °F 40°F  
Max Temperature 57°F 47°F 69°F (1958)
Min Temperature 46°F 32°F 9°F (1929)
Degree Days
Heating Degree Days 12 25  
Month to date heating degree days 438  
Since 1 July heating degree days 980  
Cooling Degree Days 0 0  
Month to date cooling degree days 0  
Year to date cooling degree days 636  
Growing Degree Days2 (Base °F )  
Moisture
Dew Point 48°F   
Average Humidity 87    
Maximum Humidity 96    
Minimum Humidity 74    
Precipitation
Precipitation 0.79 in 0.05 in 1.08 in (1921)
Month to date precipitation 1.00  
Year to date precipitation 10.67  
Wind
Wind Speed 5 mph   
Max Wind Speed 13 mph   
Max Gust Speed mph   
Visibility 8 miles   
Events Rain , Thunderstorm   

Key: T is trace of precipitation, MM is missing value
Source: NWS Daily Summary
Time(PST)TemperatureDew PointHumidity Pressure Visibility Wind DirectionWind SpeedGust SpeedPrecipitationEvents Conditions
12:22 AM 50.0°F 48.2°F 94% 29.86 in 4.0 miles Calm Calm - 0.03 in Rain Light Rain
12:33 AM 50.0°F 48.2°F 94% 29.87 in 4.0 miles Calm Calm - 0.05 in Rain Rain
12:53 AM 50.0°F 48.0°F 93% 29.86 in 3.0 miles East 6.9 mph - 0.12 in Rain Rain
1:40 AM 51.8°F 48.2°F 88% 29.85 in 10.0 miles SE 9.2 mph - 0.04 in Rain Light Rain
1:53 AM 51.1°F 48.0°F 89% 29.85 in 10.0 miles SSE 8.1 mph - 0.05 in Rain Light Rain
2:53 AM 51.1°F 46.9°F 86% 29.79 in 10.0 miles East 8.1 mph - 0.01 in Rain Light Rain
3:53 AM 51.1°F 48.0°F 89% 29.77 in 10.0 miles Calm Calm - 0.01 in Rain Light Rain
4:53 AM 51.1°F 48.0°F 89% 29.79 in 6.0 miles NNE 4.6 mph - 0.04 in Rain Rain
5:53 AM 51.1°F 48.0°F 89% 29.76 in 10.0 miles East 8.1 mph - 0.05 in Rain Light Rain
6:53 AM 51.1°F 48.0°F 89% 29.74 in 10.0 miles East 9.2 mph - 0.01 in Rain Light Rain
7:53 AM 50.0°F 48.0°F 93% 29.75 in 10.0 miles NNW 3.5 mph - 0.03 in Rain Light Rain
8:53 AM 51.1°F 48.9°F 92% 29.76 in 6.0 miles ENE 4.6 mph - 0.04 in Rain Light Rain
9:46 AM 51.8°F 48.2°F 88% 29.75 in 7.0 miles NE 4.6 mph - 0.03 in Rain Light Rain
9:53 AM 51.1°F 48.9°F 92% 29.74 in 7.0 miles ENE 5.8 mph - 0.04 in Rain Light Rain
10:53 AM 50.0°F 48.9°F 96% 29.74 in 4.0 miles North 4.6 mph - 0.05 in Rain Rain
11:53 AM 51.1°F 48.9°F 92% 29.72 in 10.0 miles ESE 5.8 mph - 0.06 in Rain Light Rain
12:53 PM 51.1°F 48.9°F 92% 29.72 in 10.0 miles Calm Calm - 0.02 in Rain Light Rain
1:53 PM 53.1°F 50.0°F 89% 29.68 in 10.0 miles Calm Calm - 0.00 in   Partly Cloudy
2:53 PM 57.0°F 48.9°F 74% 29.68 in 10.0 miles SSW 8.1 mph - N/A   Overcast
3:53 PM 55.0°F 48.0°F 77% 29.70 in 10.0 miles SSW 4.6 mph - 0.04 in   Overcast
4:36 PM 55.4°F 48.2°F 77% 29.71 in 2.5 miles WSW 9.2 mph - 0.11 in Rain Rain
4:44 PM 53.6°F 48.2°F 82% 29.72 in 8.0 miles SSW 9.2 mph - 0.11 in Rain Light Rain
4:51 PM 53.6°F 48.2°F 82% 29.72 in 9.0 miles South 9.2 mph - 0.11 in Rain , Thunderstorm Thunderstorms and Rain
4:53 PM 54.0°F 48.9°F 83% 29.73 in 8.0 miles South 9.2 mph - 0.12 in Rain , Thunderstorm Thunderstorms and Rain
5:04 PM 53.6°F 48.2°F 82% 29.73 in 5.0 miles South 9.2 mph - 0.01 in Rain Rain
5:53 PM 53.1°F 46.9°F 80% 29.76 in 4.0 miles SSE 12.7 mph - 0.06 in Rain Rain
6:53 PM 52.0°F 46.9°F 83% 29.78 in 10.0 miles South 9.2 mph - 0.00 in Rain Light Rain
7:53 PM 52.0°F 46.9°F 83% 29.78 in 10.0 miles SSE 4.6 mph - 0.02 in   Overcast
8:53 PM 50.0°F 45.0°F 83% 29.78 in 10.0 miles Calm Calm - 0.02 in Rain Light Rain
9:53 PM 48.9°F 45.0°F 86% 29.77 in 10.0 miles East 6.9 mph - 0.00 in   Overcast
10:53 PM 48.0°F 44.1°F 86% 29.72 in 10.0 miles ENE 8.1 mph - 0.00 in   Clear
11:53 PM 46.9°F 43.0°F 86% 29.70 in 10.0 miles East 8.1 mph - N/A   Partly Cloudy
Moon Phase
Nov. 20 Nov. 28 Dec. 06 Dec. 13 Dec. 20
Sunrise:07:01 AM (PST) Moon Rise:12:26 PM (PST)11/20
Sunset:04:15 PM (PST) Moon Set:No Moon Set/

Copyright © 2014 The Weather Underground, Inc.